Tracking 18980 objects as of 18-Feb-2018
HD Live streaming from Space Station
objects crossing your sky now

NOAA 16 DEB

Track NOAA 16 DEB now!
10-day predictions


NORAD ID: 42389
Int'l Code: 2000-055SH
Perigee: 766.5 km
Apogee: 835.0 km
Inclination: 99.1 °
Period: 100.7 minutes
Semi major axis: 7171 km
RCS: Unknown
Launch date: September 21, 2000
Source: United States (US)
Launch site: AIR FORCE WESTERN TEST RANGE (AFWTR)

Note: This is SATELLITE DEBRIS
aabbcc
Your satellite tracking list
Your tracking list is empty




NASA's NSSDC Master Catalog

Two Line Element Set (TLE):
1 42389U 00055SH  18048.79168933  .00008189  00000-0  31856-2 0  9994
2 42389  99.1473 151.7439 0047737 217.6390 142.1446 14.29433800201804
Source of the keplerian elements: AFSPC